Regional Weather Roundup
Issued by NWS Charleston, SC

Current Version | Previous Version | Graphics & Text | Print | Product List | Glossary On
Versions: 1 2 3 4 5 6 7 8 9 10 11 12 13 14 15 16 17 18 19 20 21 22 23 24 25 26 27 28 29 30 31 32 33 34 35 36 37 38 39 40 41 42 43 44 45 46 47 48 49 50
000
ASUS42 KCHS 291113
RWRCHS

REGIONAL WEATHER ROUNDUP
NATIONAL WEATHER SERVICE CHARLESTON SC
700 AM EDT FRI APR 29 2016

NOTE: "FAIR" INDICATES FEW OR NO CLOUDS BELOW 12,000 FEET WITH NO
SIGNIFICANT WEATHER AND/OR OBSTRUCTIONS TO VISIBILITY.

NOT ALL STATIONS ARE QUALITY CONTROLLED. USE DATA WITH CAUTION...
ESPECIALLY DEWPOINT OBSERVATIONS.

SCZ027-030-031-034>040-042>050-291200-
...SOUTHEAST SOUTH CAROLINA...

CITY           SKY/WX    TMP DP  RH WIND       PRES   REMARKS
N CHARLESTON   PTCLDY    69  66  90 W6        29.95R
WATERFRONT PRK   N/A     71  69  93 W6        29.93R
MOUNT PLEASANT FAIR      70  68  94 W5        29.95R FOG
JOHNS ISLAND   NOT AVBL
PINOPOLIS        N/A     70  68  94 W6        29.88R
MONCKS CORNER  FAIR      64  61  88 CALM      29.95R FOG
SUMMERVILLE    FAIR      64  64 100 CALM      29.97R
BEAUFORT MCAS  PTCLDY    69  66  90 W7        29.97R
BEAUFORT ARPT  FAIR      70  66  88 W7        29.96R FOG
HILTON HEAD IS PTCLDY    72  70  94 W7        29.98R
WALTERBORO     SUNNY     70  70 100 CALM      29.98R
ALLENDALE      FAIR      68  66  94 CALM      29.97R FOG

...SOUTHERN MIDLANDS AND PEE DEE...

CITY           SKY/WX    TMP DP  RH WIND       PRES   REMARKS
GEORGETOWN     FAIR      66  64  94 W7        29.94R
KINGSTREE      FOG       61  59  94 CALM      29.94R VSB 1/2
ORANGEBURG     FOG       65  65 100 SW3       29.97R VSB 1/2
BARNWELL       FAIR      68  68 100 CALM      29.98R FOG
AIKEN          FAIR      63  63 100 W3        30.01R FOG
MANNING        NOT AVBL
COLUMBIA       CLEAR     65  62  90 W5        29.96R
SUMTER         CLEAR     66  63  90 NW3       29.94R
FLORENCE       CLEAR     67  64  90 NW5       29.94R
MYRTLE BEACH   PTCLDY    70  61  73 NW7       29.94R
N MYRTLE BEACH CLEAR     68  66  93 CALM      29.92R

$$

GAZ063-065-086>088-099>101-113>116-118-119-134>141-150-291200-
...SOUTHEAST GEORGIA...

CITY           SKY/WX    TMP DP  RH WIND       PRES   REMARKS
SAVANNAH ARPT  PTCLDY    68  65  90 W6        29.98R
HUNTER AAF     CLEAR     68  68 100 W7        29.96R
FORT STEWART   CLEAR     69  67  92 W3        29.97R
STATESBORO     CLEAR     70  70 100 CALM      29.98R FOG
SYLVANIA       FOG       66  66 100 CALM      29.99R VSB 1
CLAXTON          N/A     64  64 100 CALM      29.99R FOG

...CSRA...CENTRAL AND FAR SOUTHEAST GEORGIA...

CITY           SKY/WX    TMP DP  RH WIND       PRES   REMARKS
THOMSON        CLEAR     65  65 100 CALM      30.03R
AUGUSTA-BUSH   CLEAR     62  61  96 CALM      29.97R FOG
AUGUSTA-DANIEL CLEAR     69  63  81 NW7       29.98R
SWAINSBORO     FAIR      64  64 100 NW3       30.00R FOG
VIDALIA          N/A     64  64 100 SW3       30.00R FOG
EASTMAN        FAIR     N/A N/A N/A CALM      30.03R FOG
HAZLEHURST     FAIR      70  70 100 CALM      30.00R FOG
ALMA           CLOUDY    70  70 100 W6        30.01R FOG
WAYCROSS       CLOUDY    70  70 100 NW7       30.01R FOG
JESUP          CLOUDY    72  72 100 CALM      30.00R FOG
BAXLEY         FOG       70  68  94 W5        30.00R VSB 1/2
BRUNSWICK      FOG       66  64  94 W7        30.00R VSB 3/4
SAINT SIMONS   CLOUDY    69  69 100 MISG      29.99R FOG

$$

SCZ027-028-034-036>038-045-046-048>050-GAZ119-141-291200-
...LAKE AND SUPPLEMENTAL COASTAL OBSERVATIONS...

STATION/POSITION TIME  TEMP    WIND        PRES    WAVE   SWELL
                       AIR SEA DIR/SP/G            HT/PER HT/PER/DIR
                 (UTC) (F)     (DEG/KT/KT) (MB)    (FT/S) (FT/S/D)
WINYAH BAY       NOT AVBL
LAKE MURRAY      1000   68     280/  5/  7 1013.5R
ACE BASIN NERRS  0945   71     240/  2     1014.0
FORT PULASKI     1000   71 72  260/  5/  7 1014.8R
SAPELO ISLAND    1000   70     270/  4     1015.0S

$$

ANZ835-935-AMZ111-154-330-350-352-354-370-450-454-472-291200-
...C-MAN AND BUOY OBSERVATIONS...

STATION/POSITION TIME  TEMP    WIND        PRES    WAVE   SWELL
                       AIR SEA DIR/SP/G            HT/PER HT/PER/DIR
                 (UTC) (F)     (DEG/KT/KT) (MB)    (FT/S) (FT/S/D)
BUOY 41004       1050   72 72  250/ 12/ 14 1013.3R   3/ 5   2/11
BUOY 41008       NOT AVBL
FOLLY BEACH CMAN 1000   70     250/  5/  8 1013.8R
CAPERS NEARSHORE 1008   71 69  260/ 10/ 12 1013.4R
FRIPP NEARSHORE  1008   72 71  260/  8/ 10 1013.6R


STATION/POSITION TIME  TEMP    WIND        PRES    WAVE   SWELL
                       AIR SEA DIR/SP/G            HT/PER HT/PER/DIR
                 (UTC) (F)     (DEG/KT/KT) (MB)    (FT/S) (FT/S/D)
5E ST. MARYS GA  1021      71                N/A     1/11
FRYING PAN BUOY  1000   71 69  240/ 16/ 17 1012.0R
BUOY 41025       1050   66 71   30/ 12/ 16 1012.2R   3/ 3   2/110/ 9
CAPE LOOKOUT NC  1000   67     290/  6/  7 1011.0F
BUOY 41002       1050   71 71  200/ 12/ 14 1014.9R   2/ 9   2/ 90/ 9
BUOY 41010       1020   75 76  220/ 10/ 10 1015.6R
ST AUGUSTINE FL  1100   70 69  280/  6/  8 1016.7R


$$




USA.gov is the U.S. government's official web portal to all federal, state and local government web resources and services.